Salisbury, MD

8:19 AM EDT on September 27, 2016 (GMT -0400)
Salisbury-Ocean City Wicomico Regional

Weather History for KSBY - May, 2013

Change the Weather History Date:

Tuesday, May 14, 2013

  Actual Average Record
Temperature  
Mean Temperature 51 °F 62 °F  
Max Temperature 64 °F 73 °F 93 °F (1956)
Min Temperature 37 °F 51 °F 32 °F (2007)
Degree Days  
Heating Degree Days 14 5  
Month to date heating degree days 92 85  
Since 1 July heating degree days 3840 4365  
Cooling Degree Days 0 2  
Month to date cooling degree days 18 17  
Year to date cooling degree days 64 34  
Moisture  
Dew Point 33 °F    
Average Humidity 56    
Maximum Humidity 85    
Minimum Humidity 27    
Precipitation  
Precipitation T in 0.11 in 1.80 in (1972)
Month to date precipitation 1.83 1.49  
Year to date precipitation 17.16 16.42  
Snow  
Snow 0.00 in 0.00 in 0.00 in (2002)
Month to date snowfall 0.0 0.0  
Since 1 July snowfall 2.8 9.3  
Snow Depth 0.00 in    
Sea Level Pressure  
Sea Level Pressure 30.15 in    
Wind  
Wind Speed 7 mph (West)    
Max Wind Speed 22 mph    
Max Gust Speed 26 mph    
Visibility 10 miles    
Events Rain    
T = Trace of Precipitation, MM = Missing Value Source: NWS Daily Summary

Daily Weather History Graph

Daily Weather History Graph

Search for Another Location

Airport or City:

Trip Planner

Search our weather history database for the weather conditions in past years. The results will help you decide how hot, cold, wet, or windy it might be!

Date:

Astronomy

May. 14, 2013 Rise Set
Actual Time 5:51 AM EDT 8:05 PM EDT
Civil Twilight 5:21 AM EDT 8:35 PM EDT
Nautical Twilight 4:45 AM EDT 9:11 PM EDT
Astronomical Twilight 4:05 AM EDT 9:51 PM EDT
Moon 9:28 AM EDT (5/14) 11:52 PM EDT (5/14)
Length of Visible Light 15h 13m
Length of Day
14h 14m
Waxing Crescent, 19% of the Moon is Illuminated
May 14
Waxing Crescent
May 18
First Quarter
May 25
Full
May 31
Last Quarter
Jun 8
New

Hourly Weather History & Observations

Time (EDT) Temp. Windchill Dew Point Humidity Pressure Visibility Wind Dir Wind Speed Gust Speed Precip Events Conditions
12:54 AM 42.1 °F - 34.0 °F 73% 30.16 in 10.0 mi Calm Calm - N/A   Clear
1:54 AM 41.0 °F - 34.0 °F 76% 30.16 in 10.0 mi Calm Calm - N/A   Clear
2:54 AM 39.9 °F - 33.1 °F 77% 30.17 in 10.0 mi Calm Calm - N/A   Clear
3:54 AM 37.9 °F - 32.0 °F 79% 30.17 in 10.0 mi Calm Calm - N/A   Clear
4:54 AM 37.9 °F - 33.1 °F 83% 30.17 in 10.0 mi Calm Calm - N/A   Clear
5:54 AM 39.0 °F - 33.1 °F 79% 30.18 in 10.0 mi Calm Calm - N/A   Clear
6:54 AM 43.0 °F 40.3 °F 35.1 °F 74% 30.19 in 10.0 mi NW 4.6 mph - N/A   Clear
7:54 AM 48.9 °F - 34.0 °F 56% 30.21 in 10.0 mi NNW 6.9 mph - N/A   Clear
8:54 AM 53.1 °F - 33.1 °F 47% 30.20 in 10.0 mi NNW 5.8 mph - N/A   Clear
9:54 AM 55.9 °F - 30.0 °F 37% 30.20 in 10.0 mi West 10.4 mph - N/A   Clear
10:54 AM 57.0 °F - 28.0 °F 33% 30.20 in 10.0 mi NW 12.7 mph - N/A   Clear
11:54 AM 59.0 °F - 28.0 °F 31% 30.18 in 10.0 mi WNW 13.8 mph 26.5 mph N/A   Clear
12:54 PM 61.0 °F - 27.0 °F 27% 30.17 in 10.0 mi NW 18.4 mph 25.3 mph N/A   Clear
1:54 PM 61.0 °F - 28.9 °F 30% 30.16 in 10.0 mi West 13.8 mph 20.7 mph N/A   Clear
2:54 PM 62.1 °F - 28.9 °F 29% 30.14 in 10.0 mi West 10.4 mph 19.6 mph N/A   Clear
3:54 PM 64.0 °F - 32.0 °F 30% 30.13 in 10.0 mi West 12.7 mph 19.6 mph N/A   Clear
4:54 PM 64.0 °F - 30.0 °F 28% 30.12 in 10.0 mi West 11.5 mph - N/A   Clear
5:54 PM 64.0 °F - 30.0 °F 28% 30.11 in 10.0 mi West 5.8 mph - N/A   Clear
6:54 PM 62.1 °F - 32.0 °F 32% 30.09 in 10.0 mi WSW 4.6 mph - N/A   Partly Cloudy
7:54 PM 59.0 °F - 39.0 °F 48% 30.12 in 10.0 mi Calm Calm - N/A   Mostly Cloudy
8:54 PM 57.0 °F - 37.9 °F 49% 30.10 in 10.0 mi South 4.6 mph - N/A   Overcast
9:54 PM 57.0 °F - 39.0 °F 51% 30.12 in 10.0 mi South 4.6 mph - N/A   Overcast
10:54 PM 55.9 °F - 42.1 °F 60% 30.13 in 10.0 mi SSE 6.9 mph - 0.00 in   Overcast
11:54 PM 55.0 °F - 45.0 °F 69% 30.12 in 10.0 mi ESE 4.6 mph - 0.00 in Rain Light Rain